Flag for Germany Weather past 2 weeks in Bramsche, Lower Saxony, Germany

Now
60 °F

Fog.


Feels Like: 60 °F
Forecast: 54 / 61 °F
Wind: 1 mph from North

Location: Muenster / Osnabrueck

Current Time: Sep 20, 2014 at 10:07:50 AM

Latest Report: Sep 20, 2014 at 9:00 AM


Visibility: 0 mi

Pressure: 29.93 "Hg

Humidity: 100%

Dew point: 60 °F

Location of BramscheLocation

Historic Weather in Bramsche — Graph

°F

Bramsche temperature yesterday

Maximum temperature yesterday: 73 °F (at 3:00 PM)
Minimum temperature yesterday: 60 °F (at 4:00 AM)
Average temperature yesterday: 66 °F

Past Weeks' High & Low Weather Summary

 TemperatureHumidityPressure
High79 °F (Sep 18, 3:00 PM)100% (Sep 6, 5:00 AM)30.26 "Hg (Sep 6, 5:00 AM)
Low47 °F (Sep 12, 3:00 AM)49% (Sep 18, 3:00 PM)29.85 "Hg (Sep 19, 7:00 AM)
Average62 °F83%30.03 "Hg
* Reported Sep 5 9:00 AM — Sep 20 9:00 AM, Bramsche, Weather by CustomWeather, © 2014

Note: Actual official high and low records may vary slightly from our data, if they occured in-between our weather recording intervals... More about our weather records

Advertising

Bramsche weather history for previous 24 hours

 ConditionsComfort  
Time TempWeatherWind HumidityBarometerVisibility
9:00 AM
Sep 20
60 °FFog.1 mph100%29.93 "Hg0 mi
8:00 AM59 °FFog.1 mph100%29.93 "Hg1 mi
7:00 AM59 °FFog.1 mph100%29.93 "Hg0 mi
6:00 AM58 °FFog.1 mph100%29.91 "Hg1 mi
5:00 AM59 °FFog.1 mph99%29.91 "Hg1 mi
4:00 AM60 °FFog.1 mph100%29.91 "Hg0 mi
3:00 AM59 °FFog.1 mph99%29.92 "Hg1 mi
2:00 AM60 °FFog.1 mph99%29.91 "Hg0 mi
1:00 AM61 °FFog.No wind97%29.91 "Hg1 mi
12:00 AM64 °FFog.1 mph95%29.91 "Hg2 mi
11:00 PM
Sep 19
65 °FFog.2 mph94%29.91 "Hg3 mi
10:00 PM64 °FOvercast.1 mph94%29.90 "Hg3 mi
9:00 PM66 °FThunderstorms. Overcast.1 mph91%29.89 "Hg4 mi
8:00 PM70 °FThunderstorms. Overcast.1 mph84%29.88 "Hg5 mi
7:00 PM71 °FThunderstorms. Overcast.2 mph78%29.87 "Hg5 mi
6:00 PM72 °FOvercast.1 mph73%29.86 "Hg6 mi
5:00 PM72 °FOvercast.2 mph73%29.86 "Hg6 mi
4:00 PM72 °FOvercast.2 mph74%29.87 "Hg6 mi
3:00 PM73 °FOvercast.2 mph74%29.87 "Hg7 mi
2:00 PM71 °FOvercast.1 mph77%29.87 "Hg7 mi
1:00 PM69 °FOvercast.1 mph81%29.87 "Hg7 mi
12:00 PM69 °FOvercast.3 mph82%29.87 "Hg9 mi
11:00 AM66 °FOvercast.2 mph88%29.88 "Hg9 mi
10:00 AM65 °FOvercast.2 mph90%29.87 "Hg7 mi
Weather by CustomWeather, © 2014

See weather overviewHow to use our weather pages